Total_Precipitation_Accumulation
0.61 0.33 0.55 0.54 0.44 0.36 0.34 0.35 0.35 0.34 0.34 0.34 0.32 0.30 0.26 0.23 0.20 0.21 0.20 0.17 0.17 0.20 0.25 0.30 0.31 0.33 0.32 0.33 0.39 0.45 0.47 0.46 0.42 0.33 0.30 0.32 0.36 0.44 0.58 0.70 0.93 1.21 0.85
0.43 0.29 0.52 0.55 0.44 0.37 0.33 0.30 0.31 0.31 0.32 0.32 0.32 0.29 0.26 0.23 0.21 0.22 0.21 0.18 0.17 0.18 0.22 0.27 0.32 0.35 0.38 0.39 0.50 0.58 0.56 0.52 0.53 0.49 0.53 0.57 0.51 0.48 0.51 0.64 1.03 1.21 0.88
0.36 0.29 0.37 0.50 0.45 0.41 0.38 0.34 0.32 0.36 0.35 0.31 0.33 0.30 0.30 0.26 0.24 0.23 0.21 0.19 0.18 0.19 0.20 0.25 0.34 0.39 0.41 0.50 0.58 0.62 0.64 0.63 0.62 0.60 0.85 1.25 0.92 0.64 0.65 0.70 0.76 0.80 0.79
0.31 0.29 0.38 0.54 0.54 0.52 0.47 0.43 0.46 0.47 0.43 0.43 0.44 0.40 0.38 0.34 0.29 0.27 0.25 0.24 0.23 0.24 0.26 0.28 0.36 0.44 0.48 0.49 0.52 0.55 0.57 0.63 0.69 0.63 0.93 1.29 1.23 0.89 0.83 0.86 0.74 0.74 0.82
0.34 0.35 0.53 0.68 0.66 0.63 0.57 0.55 0.60 0.57 0.53 0.52 0.51 0.49 0.50 0.44 0.41 0.35 0.32 0.32 0.31 0.34 0.36 0.35 0.39 0.45 0.52 0.53 0.52 0.51 0.55 0.73 0.68 0.60 0.82 1.06 1.28 1.05 0.90 0.93 0.83 0.77 0.84
0.47 0.41 0.53 0.66 0.71 0.70 0.58 0.59 0.67 0.62 0.59 0.53 0.48 0.50 0.51 0.48 0.48 0.42 0.43 0.44 0.40 0.41 0.44 0.45 0.46 0.48 0.53 0.56 0.54 0.59 0.69 0.74 0.63 0.75 0.87 1.05 1.21 1.04 0.88 0.84 0.87 0.89 0.94
0.46 0.37 0.42 0.64 0.69 0.67 0.63 0.67 0.75 0.69 0.64 0.54 0.49 0.53 0.55 0.54 0.52 0.50 0.51 0.51 0.49 0.45 0.46 0.50 0.50 0.50 0.51 0.55 0.55 0.58 0.66 0.68 0.77 0.89 0.86 1.04 1.02 0.92 0.82 0.79 0.91 0.94 0.94
0.69 0.54 0.49 0.66 0.69 0.68 0.70 0.75 0.82 0.83 0.72 0.60 0.55 0.55 0.53 0.54 0.54 0.55 0.55 0.55 0.54 0.52 0.53 0.52 0.52 0.51 0.46 0.47 0.46 0.48 0.60 0.62 0.67 0.76 0.80 0.94 0.93 0.89 0.75 0.72 0.81 0.89 0.95
1.05 0.93 0.82 0.76 0.70 0.73 0.79 0.76 0.92 1.07 0.91 0.73 0.65 0.65 0.58 0.53 0.52 0.52 0.53 0.57 0.57 0.57 0.55 0.54 0.55 0.52 0.48 0.45 0.45 0.49 0.60 0.59 0.58 0.69 0.67 0.87 0.97 0.89 0.77 0.73 0.77 0.89 0.97
1.02 0.94 0.93 1.00 1.00 0.98 0.99 1.05 1.18 1.50 1.37 1.00 0.81 0.69 0.65 0.57 0.54 0.58 0.55 0.57 0.62 0.63 0.64 0.66 0.63 0.60 0.59 0.55 0.53 0.57 0.60 0.48 0.49 0.49 0.53 0.69 0.97 0.84 0.70 0.67 0.66 0.69 0.80
0.77 0.81 0.87 0.92 0.94 0.97 0.96 1.12 1.38 1.66 1.73 1.38 1.10 0.95 0.78 0.54 0.57 0.65 0.58 0.68 0.72 0.73 0.76 0.81 0.79 0.72 0.70 0.61 0.59 0.61 0.50 0.34 0.53 0.54 0.54 0.69 0.91 0.82 0.64 0.52 0.47 0.52 0.57
0.59 0.56 0.58 0.61 0.67 0.72 0.77 1.04 1.27 1.33 1.53 1.31 1.28 1.13 0.98 0.92 0.87 0.69 0.64 0.78 0.84 0.84 0.83 0.87 0.91 0.76 0.62 0.48 0.49 0.51 0.33 0.31 0.46 0.48 0.45 0.75 1.01 0.90 0.65 0.52 0.45 0.45 0.45
0.55 0.51 0.45 0.46 0.48 0.54 0.67 0.88 1.10 1.23 1.40 1.41 1.39 1.33 1.32 1.27 0.94 0.77 0.84 0.87 0.88 0.87 0.77 0.81 0.79 0.60 0.47 0.43 0.47 0.39 0.30 0.31 0.40 0.44 0.50 0.77 1.04 0.98 0.69 0.51 0.43 0.41 0.41
0.49 0.56 0.49 0.37 0.37 0.39 0.47 0.66 0.86 1.07 1.26 1.31 1.14 1.06 1.19 1.20 1.01 0.88 1.00 1.08 1.04 0.99 0.98 0.99 0.89 0.72 0.54 0.47 0.45 0.44 0.39 0.39 0.43 0.47 0.57 0.61 0.86 0.95 0.81 0.58 0.46 0.39 0.40
0.46 0.54 0.56 0.48 0.40 0.39 0.44 0.51 0.58 0.87 1.05 1.20 1.25 1.03 1.15 1.19 1.11 0.98 0.92 1.09 1.04 1.02 1.03 1.04 0.99 0.86 0.73 0.59 0.56 0.53 0.55 0.51 0.47 0.39 0.52 0.53 0.66 0.84 0.89 0.76 0.59 0.45 0.42
0.40 0.47 0.52 0.55 0.54 0.50 0.49 0.51 0.51 0.56 0.67 0.79 0.76 0.73 0.92 1.03 1.00 1.00 0.86 0.91 0.98 1.08 1.23 1.22 1.05 0.95 0.84 0.71 0.70 0.68 0.65 0.60 0.56 0.42 0.48 0.51 0.47 0.52 0.64 0.76 0.72 0.60 0.54
0.39 0.42 0.47 0.54 0.61 0.62 0.63 0.71 0.64 0.59 0.64 0.64 0.60 0.61 0.72 0.82 0.84 0.97 0.94 0.90 0.91 1.09 1.25 1.32 1.21 1.10 0.91 0.81 0.76 0.74 0.66 0.67 0.66 0.52 0.49 0.52 0.45 0.39 0.49 0.68 0.79 0.76 0.67
0.37 0.37 0.39 0.43 0.48 0.53 0.60 0.68 0.73 0.73 0.75 0.71 0.74 0.70 0.66 0.79 0.91 1.03 1.05 0.96 0.95 1.11 1.26 1.35 1.38 1.32 1.16 1.03 0.91 0.80 0.74 0.79 0.75 0.61 0.58 0.59 0.59 0.48 0.48 0.50 0.64 0.79 0.82
0.36 0.32 0.31 0.32 0.32 0.35 0.42 0.54 0.65 0.72 0.80 0.86 0.88 0.86 0.84 0.87 0.91 1.04 1.18 1.18 1.17 1.23 1.27 1.28 1.30 1.23 1.16 1.10 0.99 0.93 0.84 0.83 0.80 0.68 0.65 0.70 0.72 0.66 0.57 0.39 0.39 0.41 0.59
0.29 0.30 0.30 0.31 0.30 0.27 0.31 0.45 0.56 0.63 0.71 0.87 0.94 1.00 1.27 1.35 1.14 1.09 1.19 1.21 1.23 1.33 1.33 1.43 1.51 1.35 1.17 1.19 1.17 1.06 0.93 0.84 0.75 0.72 0.75 0.79 0.77 0.71 0.67 0.51 0.40 0.26 0.34
0.15 0.14 0.18 0.24 0.31 0.29 0.26 0.33 0.44 0.53 0.67 0.81 0.97 1.04 1.27 1.37 1.28 1.29 1.28 1.25 1.25 1.27 1.31 1.47 1.69 1.57 1.37 1.26 1.34 1.22 1.04 0.88 0.77 0.75 0.73 0.80 0.81 0.77 0.77 0.77 0.58 0.40 0.26
0.05 0.07 0.10 0.15 0.24 0.32 0.36 0.41 0.53 0.71 0.83 0.93 1.06 1.13 1.24 1.26 1.25 1.17 1.30 1.39 1.32 1.38 1.45 1.58 1.72 1.76 1.58 1.42 1.57 1.77 1.45 1.16 0.87 0.77 0.73 0.70 0.78 0.80 0.74 0.69 0.63 0.53 0.38
0.03 0.05 0.11 0.19 0.33 0.50 0.66 0.88 1.13 1.41 1.53 1.42 1.27 1.34 1.47 1.53 1.49 1.41 1.47 1.60 1.51 1.51 1.54 1.58 1.60 1.86 1.89 1.70 1.70 2.02 1.68 1.45 1.40 0.98 0.74 0.67 0.79 0.84 0.80 0.74 0.65 0.66 0.64
0.11 0.17 0.28 0.40 0.57 0.74 0.95 1.17 1.43 1.66 1.82 1.84 1.86 1.89 1.87 1.82 1.70 1.58 1.58 1.61 1.63 1.67 1.57 1.47 1.59 1.88 2.18 2.11 1.97 1.80 1.56 1.38 1.54 1.39 0.96 0.72 0.76 0.79 0.84 0.77 0.71 0.73 0.74
0.28 0.41 0.53 0.76 0.93 1.06 1.13 1.23 1.45 1.56 1.63 1.74 1.88 1.93 1.93 1.84 1.71 1.56 1.51 1.54 1.60 1.68 1.65 1.68 1.81 2.05 2.25 2.37 2.29 2.03 1.72 1.46 1.17 1.24 1.24 1.06 0.85 0.70 0.69 0.78 0.86 0.80 0.75
0.57 0.81 0.96 1.07 1.16 1.16 1.14 1.16 1.30 1.43 1.52 1.60 1.73 1.79 1.73 1.59 1.54 1.50 1.49 1.44 1.39 1.45 1.55 1.69 1.92 2.02 2.16 2.32 2.31 2.03 1.80 1.61 1.40 1.29 1.15 1.18 1.18 0.91 0.74 0.74 0.79 0.79 0.77